Location: Cantaing
(50.1487°N, 3.1675°E)
Time: 13:14:11
(UTC+00:00)

Cosmos 2082 Rocket - Pass Details

Date: 14 April 2026
Orbit: 831 x 853 km, 71.0° (Epoch: 19 May)

Event Time Altitude Azimuth Distance (km) Brightness Sun altitude
Exits shadow 02:56:41 29° 218° (SW) 1,503 2.9 -17.7°
Maximum altitude 02:59:41 78° 300° (WNW) 877 2.2 -17.3°
Drops below altitude 10° 03:05:26 10° 27° (NNE) 2,494 5.7 -16.6°
Sets 03:07:54 0° 29° (NNE) 3,434 6.7 -16.3°
